Location: Bennemühlen
(52.5740°N, 9.7135°E)
Time: 00:08:31
(UTC+00:00)

Cosmos 2154 Rocket - Pass Details

Date: 19 May 2025
Orbit: 965 x 996 km, 82.9° (Epoch: 15 June)

Event Time Altitude Azimuth Distance (km) Brightness Sun altitude
Rises 19:48:35 0° 348° (NNW) 3,669 8.0 -4.5°
Reaches altitude 10° 19:51:06 10° 348° (NNW) 2,717 7.3 -4.8°
Maximum altitude 19:57:19 81° 262° (W) 984 4.2 -5.5°
Drops below altitude 10° 20:03:30 10° 177° (S) 2,705 5.9 -6.1°
Sets 20:06:00 0° 176° (S) 3,651 6.5 -6.4°
